Location: Friaudour
(46.0460°N, 1.2873°E)
Time: 08:13:35
(UTC+00:00)

ATLAS 5 CENTAUR R/B - Pass Details

Date: 14 July 2020
Orbit: 273 x 14305 km, 60.7° (Epoch: 14 August)

Event Time Altitude Azimuth Distance (km) Brightness Sun altitude
Rises 02:42:32 0° 306° (NW) 2,620 5.3 -13.1°
Reaches altitude 10° 02:43:58 10° 298° (WNW) 2,045 4.6 -12.9°
Maximum altitude 02:48:02 44° 225° (SW) 1,552 3.6 -12.5°
Drops below altitude 10° 03:01:19 10° 160° (SSE) 6,556 7.0 -11.0°
Sets 03:10:37 0° 157° (SSE) 9,795 7.9 -9.9°
